Showing default

COSMOS 2384, 27055

Orbit data source: Space-Track

COSMOS 2384, 27055 is a payload satellite owned by KVR (CIS) in LEO that was launched on Fri, 28 Dec 2001 UTC via a TSIKLON-3 launch vehicle from the Plesetsk Missile And Space Complex (PKMTR). Payload-class satellites include a variety of spacecraft equipped with specific instruments for various scientific and technological missions. These include communications satellites like Starlink; space stations such as the ISS; scientific satellites like the Hubble; Earth observation satellites from companies like Planet Labs, Umbra, and HawkEye 360; GPS; miniature CubeSats for education and research; and military/defense satellites.

Loading next visibility...
Identifier
27055, 2001-058A
Orbit
LEO
Country
Flag of CISCIS
Related business
Manufacturer
NPO PM
Mission
Non-operational Defense Communications
Bus & Motor
STRELA-3, Unknown motor
Mass
225 kg wet, 225 kg dry
Launch date (UTC)
2001-12-28 (24 years ago)
Launch vehicle
TSIKLON-3
Launch site
Plesetsk Missile And Space Complex (PKMTR)
Object type
Payload
Rocket body
Debris
Shape & HBR
Cyl + 1 Arm, 3.5 m
Radar Cross Section
1.257 m², Medium (>0.1 m² and < 1m²)

Expand to show TLE details & history
Last TLE update: 7 hours ago

TLE from 7 hours ago
0 COSMOS 2384
1 27055U 01058A   25291.93054926  .00000021  00000-0  62683-4 0  9992
2 27055  82.5504  27.5233 0011090  81.7587 278.4760 12.59883850 94673
Epoch: 2025-10-18T22:19Z
TLE epoch observation values (Epoch: 2025-10-18T22:19:59.456Z)
Latitude
0.00001°
Longitude
24.87107°
Altitude
1,424.883 km
Speed
7.149 km/s
True Right ascension
01h 50m 05s
True Declination
0° 00' 00"
Sunlit
Object was in full shadow at epoch
Visualization orbit readout
Latitude
Unknown
Longitude
Unknown
Altitude
Unknown
Speed
Unknown
Apparent Right ascension
Unknown
Apparent Declination
Unknown
Sunlit
N/A
Visualization observer readout
Local Sidereal Time
00:36:48
Azimuth
Unknown
Elevation
Unknown
Doppler factor
Unknown
Orbital elements
Apogee altitude
1,429.398 km
Perigee altitude
1,412.1 km
Semi-major axis
7,798.886 km
Eccentricity
0.00111
Inclination
82.5504°
RAAN
27.5233°
Arg. of periapsis
81.7587°
True anomaly
278.35028°
Mean anomaly
278.476°
Eccentric anomaly
278.41314°
Mean motion
3.15133 °/min
Orbital period
114.24 mins
BSTAR
0.000062683
Loading maneuver chart data...
Computing Atmospheric mass density...
Loading historical data...
Loading historical data...
Loading historical data...
Loading historical data...
Loading historical data...
Loading historical data...
Loading historical data...

Documentation

Showing up to 5 results
|